This is the latest recevied weather packets stored in our database for station/object YB2YEN-13. If no packets are shown the sender has not sent any weather packets the latest 10 day(s).
| Time | Temp. | Humidity | Pressure | Rain* | Wind** | Luminosity | Snow |
|---|---|---|---|---|---|---|---|
| 1777694718 | 31.11° C | 90% | 978 hPa | - | - | 0 W/m² | - |
| 1777694396 | 31.11° C | 85% | 978 hPa | - | - | 0 W/m² | - |
| 1777694074 | 31.11° C | 88% | 978 hPa | - | - | 0 W/m² | - |
| 1777693752 | 31.67° C | 93% | 978 hPa | - | - | 0 W/m² | - |
| 1777693430 | 31.11° C | 94% | 978 hPa | - | - | 0 W/m² | - |
| 1777693108 | 30.56° C | 95% | 979 hPa | - | - | 0 W/m² | - |
| 1777692786 | 30° C | 96% | 979 hPa | - | - | 0 W/m² | - |
| 1777692464 | 30.56° C | 93% | 979 hPa | - | - | 0 W/m² | - |
| 1777692142 | 30° C | 91% | 979 hPa | - | - | 0 W/m² | - |
| 1777691820 | 30.56° C | 96% | 979 hPa | - | - | 0 W/m² | - |
| 1777691498 | 31.11° C | 91% | 979 hPa | - | - | 0 W/m² | - |
| 1777691176 | 32.22° C | 89% | 979 hPa | - | - | 0 W/m² | - |
| 1777690855 | 31.11° C | 85% | 979 hPa | - | - | 0 W/m² | - |
| 1777690534 | 31.11° C | 94% | 979 hPa | - | - | 0 W/m² | - |
| 1777690210 | 31.67° C | 97% | 979 hPa | - | - | 0 W/m² | - |
| 1777689888 | 31.67° C | 99% | 979 hPa | - | - | 0 W/m² | - |
| 1777689566 | 30.56° C | 98% | 979 hPa | - | - | 0 W/m² | - |
| 1777689244 | 31.11° C | 99% | 979 hPa | - | - | 0 W/m² | - |
| 1777688922 | 30.56° C | 99% | 979 hPa | - | - | 0 W/m² | - |
| 1777688600 | 30.56° C | 99% | 979 hPa | - | - | 0 W/m² | - |
| 1777688278 | 30° C | 98% | 979 hPa | - | - | 0 W/m² | - |
| 1777687956 | 30.56° C | 99% | 979 hPa | - | - | 0 W/m² | - |
| 1777687634 | 30.56° C | 99% | 979 hPa | - | - | 0 W/m² | - |
| 1777687312 | 30° C | 99% | 979 hPa | - | - | 0 W/m² | - |
| 1777686991 | 29.44° C | 99% | 979 hPa | - | - | 0 W/m² | - |
* Rain since midnight (hover to see other rain measurements)
** Current wind speed in m/s (hover to see current wind gust speed)